Temp
59 59 58 57 56 54 54 59 59 75 77 61 55 55 65 70 78 81 77 75 70 72 74 72 68 69 71 80 75 67 63 58 54 64 71 74 71 61 57 53 54 51 50 53
59 59 58 57 55 54 48 60 62 76 75 55 55 61 71 76 78 76 77 75 76 74 67 64 71 73 78 79 73 65 64 55 50 57 61 68 64 64 60 57 52 50 48 52
59 59 58 56 56 55 51 61 60 65 67 62 58 59 66 68 81 78 78 74 74 72 69 67 65 69 77 78 73 71 67 53 52 49 55 59 61 66 64 56 50 49 51 53
59 59 58 57 56 54 55 61 60 63 58 63 64 64 67 70 70 78 75 72 72 68 60 62 64 70 69 74 70 67 63 53 52 54 62 62 62 65 66 56 58 54 55 56
59 59 58 57 56 55 61 58 58 60 58 64 62 58 63 70 73 71 69 67 71 67 61 60 59 63 60 60 67 62 61 54 52 56 64 63 61 66 66 64 63 59 61 58
59 59 58 58 56 55 57 60 61 60 57 61 62 64 66 70 72 75 76 72 67 66 67 67 66 65 66 63 60 61 58 55 50 46 58 59 53 60 63 61 62 60 54 59
59 59 59 58 57 55 49 55 56 56 57 61 64 71 74 73 71 69 73 72 66 68 71 70 65 62 61 63 61 63 57 52 49 47 49 42 56 65 68 64 64 64 63 64
58 59 59 59 58 56 49 55 58 53 53 62 67 70 68 68 67 70 70 72 71 69 67 60 55 56 59 62 65 62 61 52 48 47 43 52 59 63 61 56 56 64 61 64
58 59 59 59 58 57 51 55 58 56 53 59 68 66 65 59 58 63 67 71 69 70 57 55 47 48 54 56 60 59 57 56 54 45 44 43 52 66 68 63 48 64 63 61
58 59 59 59 59 57 52 53 59 56 52 58 61 61 60 63 59 57 60 67 66 65 53 51 49 51 59 53 52 51 51 50 49 46 45 49 61 66 67 48 49 60 63 61
58 59 59 59 59 58 55 54 58 58 51 55 65 68 62 63 58 55 60 60 61 56 52 51 51 51 55 52 54 51 51 48 47 46 43 43 64 63 53 56 57 61 61 60
58 58 59 58 58 58 56 51 61 62 54 58 65 70 71 71 69 61 58 59 57 58 53 51 51 52 52 47 47 55 50 52 50 51 50 58 60 59 60 61 60 58 58 61
58 58 58 58 58 58 56 49 52 55 53 56 58 63 71 72 72 70 60 58 61 60 59 53 51 52 51 47 49 50 55 57 53 54 57 58 61 61 63 62 60 63 63 63
57 58 58 58 57 57 57 49 52 52 52 49 58 73 69 72 74 72 68 66 65 62 59 53 50 51 55 50 54 52 56 56 53 51 55 59 61 61 62 63 64 64 65 64
56 56 57 57 57 56 54 51 53 56 55 48 51 61 67 69 72 72 68 64 60 56 56 52 52 52 54 52 52 50 55 55 50 47 56 55 57 62 65 63 62 63 61 62
56 56 56 56 56 55 51 53 55 56 52 50 47 60 62 66 70 67 61 62 58 57 55 53 54 59 55 48 47 55 57 58 58 56 60 59 62 63 63 61 63 64 63 62
55 55 55 55 54 50 49 52 56 52 52 51 48 51 62 69 64 62 61 61 58 57 53 53 54 56 55 49 47 56 57 60 60 60 58 57 60 59 63 63 64 63 63 62
55 55 55 54 54 52 49 53 55 52 51 52 46 51 58 62 57 56 57 56 55 56 55 53 53 54 52 49 54 57 60 61 60 61 61 58 59 59 60 61 61 59 58 58
54 54 54 52 49 50 55 61 57 53 53 48 48 47 49 61 58 56 57 55 50 54 52 52 54 48 48 51 53 57 60 57 57 61 58 59 57 57 58 58 58 56 55 54
54 51 51 50 55 61 61 55 51 50 50 49 46 51 51 58 54 54 54 52 50 48 52 54 50 47 53 56 59 58 60 59 58 54 53 54 53 54 53 54 55 54 53 53
50 49 49 54 59 55 51 49 48 48 47 49 50 51 50 57 53 52 54 50 49 46 51 51 48 47 52 57 58 58 59 59 58 57 56 54 52 51 51 52 53 55 56 55
50 49 50 51 52 50 48 48 50 49 50 52 52 52 55 56 57 54 53 50 49 46 53 50 43 49 54 58 59 59 58 59 59 58 55 54 55 53 54 55 54 54 54 55
50 49 48 50 49 41 47 45 48 48 54 56 55 54 57 57 56 52 51 49 47 53 49 47 47 51 54 55 57 59 58 59 58 56 56 55 54 54 54 52 53 53 52 53
47 47 38 45 44 48 48 50 51 57 58 57 54 54 55 53 53 51 49 52 52 47 44 45 48 51 54 55 57 56 56 56 54 53 54 52 53 53 54 53 53 52 50 52
48 48 39 45 51 53 55 58 56 63 65 61 56 58 57 53 53 50 50 48 47 48 46 47 51 53 54 55 56 55 54 53 51 51 50 50 52 49 49 50 49 49 51 51
47 47 45 50 49 50 52 54 58 59 63 62 59 55 53 52 53 48 48 48 47 48 50 51 52 53 54 54 55 55 54 52 50 50 49 51 49 48 47 48 48 47 49 49
48 46 51 51 52 49 51 56 57 59 56 52 56 53 53 52 48 47 51 48 50 51 52 52 53 54 54 55 55 55 54 51 50 49 48 48 49 49 47 45 46 46 49 49
MSLP
1017.50 1016.60 1015.57 1014.47 1013.48 1012.29 1011.90 1011.21 1010.16 1007.62 1007.30 1009.02 1009.62 1009.40 1007.59 1006.02 1004.40 1003.38 1003.01 1002.77 1003.85 1003.73 1004.04 1004.66 1004.71 1004.97 1004.56 1004.46 1004.41 1006.01 1006.80 1007.71 1008.10 1007.22 1006.48 1005.93 1006.39 1007.15 1007.81 1009.04 1009.82 1010.17 1010.41 1010.41
1017.48 1016.56 1015.50 1014.36 1013.53 1013.00 1012.58 1011.36 1009.82 1007.78 1007.58 1009.01 1009.58 1008.40 1007.12 1005.93 1004.54 1003.85 1003.20 1003.40 1003.51 1003.70 1004.85 1005.76 1005.18 1005.06 1005.08 1004.73 1005.29 1006.47 1007.30 1008.66 1009.32 1008.08 1007.65 1006.68 1007.26 1007.67 1008.04 1008.89 1009.68 1010.76 1011.13 1011.27
1017.55 1016.57 1015.49 1014.16 1012.97 1012.02 1012.19 1011.34 1010.44 1009.26 1008.69 1008.74 1008.82 1008.47 1006.86 1005.42 1003.58 1003.28 1003.44 1003.85 1003.93 1004.43 1005.44 1005.87 1005.92 1005.74 1005.81 1005.79 1006.27 1006.90 1007.62 1009.50 1010.26 1010.24 1009.82 1009.10 1008.47 1007.99 1008.26 1009.23 1009.96 1010.81 1011.19 1011.90
1017.77 1016.81 1015.71 1014.41 1012.96 1011.94 1011.91 1011.52 1011.34 1010.30 1009.77 1009.29 1008.70 1008.10 1006.81 1005.69 1004.10 1003.23 1003.68 1004.50 1005.09 1005.20 1006.38 1006.72 1007.07 1006.77 1006.77 1006.84 1007.05 1007.53 1008.50 1010.31 1010.50 1010.45 1009.97 1009.28 1008.86 1008.40 1008.42 1008.92 1009.06 1010.11 1011.23 1011.50
1018.10 1017.21 1016.20 1014.88 1013.32 1012.24 1012.20 1012.55 1012.18 1011.14 1010.59 1009.30 1008.07 1007.48 1006.33 1005.71 1004.82 1004.46 1005.29 1005.89 1006.29 1006.06 1007.49 1007.64 1007.77 1007.56 1007.65 1007.78 1007.70 1008.12 1009.03 1010.40 1010.81 1010.94 1010.06 1009.73 1009.27 1008.74 1008.39 1008.89 1009.55 1010.66 1011.11 1011.87
1018.35 1017.57 1016.80 1015.92 1014.65 1012.86 1013.47 1012.95 1012.12 1011.91 1010.87 1009.68 1008.49 1007.82 1006.58 1006.40 1005.52 1005.87 1005.77 1006.15 1006.61 1007.01 1007.48 1007.50 1007.39 1007.47 1007.52 1007.59 1008.00 1008.87 1009.71 1010.76 1011.98 1012.11 1011.13 1010.47 1010.13 1009.74 1009.37 1009.60 1009.74 1010.50 1011.46 1011.88
1018.66 1017.84 1017.08 1016.43 1015.92 1015.70 1015.43 1013.70 1013.09 1012.72 1011.97 1010.59 1009.59 1008.47 1007.48 1006.97 1006.64 1006.76 1006.70 1006.51 1006.85 1007.40 1007.10 1007.07 1007.21 1007.27 1007.39 1007.52 1007.81 1008.52 1010.12 1011.41 1012.24 1012.95 1012.19 1011.71 1011.26 1010.56 1010.08 1010.52 1011.26 1011.42 1011.83 1012.23
1018.85 1018.13 1017.43 1016.74 1016.06 1015.49 1015.21 1013.88 1013.51 1013.53 1012.72 1011.21 1009.65 1008.94 1008.37 1007.65 1007.30 1007.31 1007.22 1007.18 1007.40 1007.38 1007.87 1008.93 1009.42 1009.11 1008.60 1007.82 1007.83 1008.68 1009.49 1011.29 1013.00 1013.43 1013.33 1012.20 1011.36 1010.86 1011.02 1011.19 1012.61 1012.60 1012.74 1012.86
1019.10 1018.42 1017.70 1017.04 1016.43 1015.72 1014.89 1014.11 1013.47 1013.49 1013.41 1011.88 1010.50 1009.61 1009.24 1009.16 1008.91 1008.69 1008.32 1007.75 1007.36 1007.88 1009.60 1010.64 1011.09 1010.85 1009.79 1009.20 1008.72 1009.27 1010.13 1010.80 1012.38 1013.73 1013.69 1012.89 1012.01 1011.24 1010.88 1011.26 1012.75 1013.11 1013.04 1013.45
1019.24 1018.60 1017.96 1017.35 1016.74 1016.16 1015.82 1014.68 1013.65 1013.59 1013.66 1011.70 1010.81 1010.22 1009.86 1009.61 1009.77 1010.03 1009.55 1009.11 1008.72 1009.14 1011.02 1012.07 1012.31 1011.58 1010.34 1010.00 1009.92 1010.48 1011.24 1012.31 1013.09 1013.65 1013.42 1012.78 1011.78 1011.33 1011.13 1012.22 1013.49 1013.15 1013.06 1013.25
1019.44 1018.85 1018.26 1017.68 1017.08 1016.47 1016.10 1014.92 1013.92 1014.08 1014.10 1012.42 1010.98 1010.40 1010.19 1009.97 1010.33 1010.67 1010.33 1010.11 1010.30 1011.09 1012.23 1012.90 1012.77 1012.22 1011.52 1011.13 1010.85 1011.00 1012.00 1012.99 1013.61 1013.85 1013.45 1012.82 1011.77 1011.72 1012.19 1012.88 1013.00 1013.03 1013.04 1013.16
1019.63 1019.08 1018.52 1018.03 1017.51 1016.93 1016.31 1015.84 1014.13 1014.05 1014.37 1012.60 1011.00 1010.14 1009.68 1009.68 1009.44 1010.22 1010.63 1011.08 1011.24 1011.58 1012.52 1013.26 1013.20 1013.08 1012.55 1012.67 1012.46 1011.87 1012.76 1012.78 1013.04 1013.67 1013.39 1012.59 1012.23 1012.26 1012.56 1012.68 1012.83 1012.91 1012.94 1012.91
1019.61 1019.15 1018.66 1018.20 1017.77 1017.36 1017.15 1016.71 1015.72 1014.64 1014.34 1012.74 1011.31 1009.88 1008.92 1008.78 1008.93 1009.35 1010.41 1011.02 1010.89 1011.43 1011.68 1012.92 1013.50 1013.58 1013.28 1013.50 1013.24 1012.81 1012.60 1012.36 1013.15 1013.39 1013.66 1013.30 1013.07 1013.01 1012.85 1012.79 1012.79 1012.63 1012.55 1012.53
1019.54 1019.06 1018.60 1018.18 1017.74 1017.36 1017.17 1017.04 1016.05 1015.80 1015.21 1014.28 1011.74 1009.69 1009.33 1008.89 1008.83 1009.25 1009.74 1010.39 1010.72 1011.26 1011.75 1012.93 1013.61 1013.75 1013.12 1013.26 1013.02 1013.22 1012.87 1012.75 1013.37 1014.14 1013.77 1013.44 1013.18 1013.06 1012.92 1012.83 1012.69 1012.55 1012.42 1012.34
1019.43 1019.02 1018.45 1018.05 1017.57 1017.00 1016.48 1016.42 1015.79 1015.40 1015.58 1015.00 1013.14 1011.04 1009.40 1009.05 1009.13 1009.52 1009.83 1010.48 1011.23 1012.07 1012.73 1013.47 1013.71 1013.17 1013.20 1013.34 1013.36 1013.50 1012.93 1013.05 1013.50 1014.11 1013.81 1013.69 1013.40 1012.92 1012.66 1012.68 1012.56 1012.32 1012.25 1012.12
1019.12 1018.78 1018.35 1017.91 1017.51 1016.94 1016.25 1016.17 1015.77 1015.43 1015.55 1015.41 1014.10 1011.45 1010.05 1009.60 1009.60 1009.99 1010.35 1010.84 1011.49 1012.18 1012.97 1013.37 1013.16 1012.42 1012.79 1013.79 1014.01 1013.61 1012.95 1012.77 1012.91 1013.41 1013.38 1013.43 1013.17 1013.03 1012.69 1012.70 1012.49 1012.36 1012.24 1012.04
1018.73 1018.38 1017.99 1017.63 1017.44 1017.47 1017.05 1016.47 1015.51 1015.46 1015.94 1015.58 1014.70 1012.76 1010.62 1009.93 1010.10 1010.64 1010.98 1011.09 1011.69 1012.23 1012.97 1013.23 1013.28 1012.96 1012.96 1013.70 1013.94 1013.71 1013.22 1013.06 1013.02 1013.10 1013.19 1013.26 1012.94 1012.85 1012.52 1012.53 1012.29 1012.13 1011.92 1011.69
1018.27 1017.84 1017.43 1017.03 1016.75 1016.74 1016.52 1014.76 1014.47 1015.42 1015.82 1015.55 1015.07 1013.39 1011.52 1010.22 1011.02 1011.63 1011.46 1011.99 1012.32 1012.54 1012.90 1013.11 1013.23 1013.19 1013.35 1013.82 1013.52 1013.25 1013.09 1012.97 1013.01 1012.97 1013.05 1013.26 1013.17 1012.98 1012.87 1012.61 1012.43 1012.26 1012.07 1011.89
1017.76 1017.28 1016.80 1016.54 1016.39 1016.00 1015.00 1014.58 1014.75 1015.02 1015.84 1015.57 1015.08 1013.95 1012.34 1010.63 1011.17 1011.63 1011.79 1012.07 1013.04 1012.89 1013.01 1013.04 1013.23 1013.71 1013.90 1013.46 1013.58 1013.38 1013.19 1013.16 1013.26 1013.21 1013.31 1013.39 1013.47 1013.40 1013.21 1013.02 1012.82 1012.69 1012.46 1012.29
1017.15 1017.14 1016.73 1016.22 1015.21 1014.61 1014.70 1014.76 1015.05 1015.20 1015.17 1015.20 1014.97 1013.46 1012.40 1011.41 1011.55 1011.84 1012.32 1012.51 1012.94 1013.15 1012.66 1012.62 1012.99 1014.04 1013.80 1013.51 1013.36 1013.25 1013.16 1013.16 1013.27 1013.47 1013.75 1013.85 1013.99 1014.03 1013.86 1013.77 1013.46 1013.12 1012.73 1012.35
1017.05 1017.30 1016.95 1015.68 1015.08 1015.02 1014.97 1015.00 1015.09 1014.91 1014.96 1014.22 1013.32 1012.91 1012.48 1011.42 1011.66 1012.02 1012.11 1012.62 1012.88 1013.05 1012.72 1012.70 1013.55 1014.30 1014.04 1013.68 1013.54 1013.51 1013.45 1013.43 1013.68 1013.88 1014.31 1014.56 1014.65 1014.55 1014.25 1013.92 1013.52 1013.04 1012.67 1012.24
1018.35 1018.33 1017.51 1016.46 1015.59 1015.27 1015.15 1014.41 1013.83 1013.67 1012.97 1012.26 1012.00 1011.90 1011.71 1011.30 1010.97 1011.74 1012.16 1012.51 1012.86 1012.88 1012.32 1012.90 1014.00 1014.14 1013.86 1013.74 1013.64 1013.66 1013.62 1013.73 1014.02 1014.29 1014.63 1014.83 1014.83 1014.65 1014.38 1014.05 1013.59 1013.25 1012.78 1012.21
1017.71 1017.74 1017.23 1016.40 1015.59 1015.25 1014.60 1013.73 1012.82 1012.14 1011.10 1010.79 1010.79 1011.30 1011.09 1010.96 1011.02 1011.83 1012.22 1012.58 1012.79 1012.25 1012.80 1013.37 1014.04 1014.00 1013.90 1013.69 1013.64 1013.74 1013.88 1014.02 1014.35 1014.68 1014.89 1015.14 1015.16 1015.03 1014.81 1014.49 1014.07 1013.57 1013.03 1012.44
1017.83 1017.26 1016.93 1016.01 1014.95 1013.94 1013.00 1012.22 1011.57 1010.56 1009.95 1009.99 1010.31 1010.93 1011.03 1011.21 1011.72 1011.97 1012.40 1012.30 1012.22 1012.66 1013.12 1013.76 1013.94 1013.83 1013.88 1013.80 1013.88 1014.03 1014.41 1014.64 1015.03 1015.33 1015.48 1015.57 1015.48 1015.43 1015.18 1014.75 1014.28 1013.77 1013.20 1012.57
1017.28 1016.62 1015.98 1014.80 1013.55 1012.75 1012.11 1011.21 1010.59 1009.60 1009.11 1009.58 1010.14 1010.64 1011.03 1011.57 1011.78 1011.99 1012.26 1012.38 1012.46 1012.57 1013.12 1013.44 1013.64 1013.78 1013.71 1013.86 1013.99 1014.28 1014.67 1015.11 1015.59 1015.72 1015.91 1015.90 1015.85 1015.69 1015.44 1014.94 1014.46 1013.98 1013.44 1012.81
1016.76 1015.97 1015.00 1013.74 1013.35 1012.74 1011.92 1010.97 1010.14 1009.29 1009.04 1009.37 1009.98 1010.82 1011.47 1011.67 1011.71 1012.07 1012.17 1012.34 1012.31 1012.63 1012.67 1012.80 1013.34 1013.60 1013.55 1013.76 1014.04 1014.41 1014.88 1015.42 1015.77 1015.91 1016.04 1016.09 1016.00 1015.87 1015.72 1015.16 1014.57 1014.11 1013.64 1013.14
1015.90 1014.87 1014.02 1013.88 1013.42 1012.96 1012.05 1011.12 1010.35 1009.46 1009.57 1010.31 1010.46 1011.01 1011.30 1011.57 1011.81 1011.98 1011.69 1011.85 1011.90 1012.08 1012.53 1012.74 1013.05 1013.29 1013.48 1013.80 1014.03 1014.45 1015.03 1015.55 1015.87 1016.05 1016.03 1016.15 1016.00 1015.93 1015.78 1015.39 1014.92 1014.31 1013.85 1013.54
Wind_Speed
24 25 26 25 24 24 1 1 3 2 6 4 1 2 5 5 7 12 4 3 6 4 4 6 5 4 3 4 3 4 2 5 0 7 5 2 6 3 4 6 5 1 5 5
25 26 26 26 23 11 2 2 3 2 7 3 3 6 7 5 13 6 7 7 6 2 4 4 4 5 4 5 6 4 2 3 4 12 9 8 7 4 3 3 3 3 6 4
25 26 28 29 28 20 5 3 3 5 4 2 1 4 7 5 7 3 5 2 5 7 8 6 4 3 6 5 4 4 8 4 6 6 6 4 7 7 4 6 3 2 2 5
25 26 28 30 32 21 1 4 1 3 3 5 7 6 5 8 4 4 6 7 7 3 7 6 7 7 3 6 1 1 6 4 2 2 5 2 3 7 8 3 6 5 8 9
25 25 27 29 33 22 3 3 4 6 3 7 5 6 3 1 7 5 5 10 13 12 7 3 3 3 3 1 3 3 3 1 3 9 7 8 5 8 6 4 7 10 13 9
24 24 24 25 28 20 4 4 3 4 6 8 7 7 3 4 2 10 7 10 7 9 3 2 4 3 4 4 3 0 3 5 4 4 5 6 6 8 7 6 7 8 5 6
23 23 23 23 21 16 2 4 1 4 4 4 3 10 6 8 5 5 4 8 6 2 3 2 4 3 4 3 4 5 5 5 3 4 4 2 5 3 16 16 11 9 9 6
23 22 22 22 23 22 2 4 4 3 2 4 7 12 6 7 8 6 5 3 4 1 7 5 7 7 8 6 5 6 4 6 3 4 3 4 5 7 4 3 3 3 6 7
20 22 21 22 22 23 3 4 1 3 3 4 7 3 4 3 5 9 3 3 1 8 5 4 3 4 4 4 3 7 7 7 6 3 3 4 3 6 5 4 1 4 9 6
20 21 22 22 21 21 5 4 3 3 2 4 4 3 1 2 3 1 4 7 6 6 3 2 3 4 4 3 4 4 4 4 6 2 3 1 4 3 2 2 6 2 5 4
18 19 20 21 21 21 10 6 3 4 1 7 3 4 4 5 4 3 5 5 6 4 4 2 3 1 2 4 3 2 4 5 3 2 2 3 2 4 0 6 1 4 2 2
16 17 18 18 18 18 16 3 5 3 3 7 3 6 7 6 5 5 3 6 2 4 5 1 1 3 4 1 1 5 3 6 5 6 6 4 3 4 3 3 3 1 2 3
16 16 17 17 16 15 11 4 5 4 3 6 4 5 7 1 2 5 5 3 2 3 5 4 2 1 4 1 3 2 5 1 4 4 6 5 7 4 4 2 1 4 4 5
16 16 17 17 16 15 11 3 3 1 1 1 8 5 4 4 7 5 5 5 4 4 4 3 3 1 3 4 4 4 5 4 2 3 4 2 4 3 1 3 3 4 6 6
16 17 17 17 17 17 9 4 3 2 4 3 6 9 6 2 5 6 5 5 3 2 3 3 3 2 3 2 3 2 0 4 4 5 5 5 5 6 6 7 6 7 4 7
15 17 17 16 15 16 3 3 1 4 3 3 4 5 2 3 6 4 1 1 2 3 4 3 2 3 5 3 2 3 2 4 6 5 5 6 7 4 3 4 6 4 5 6
15 16 16 15 12 2 2 4 3 5 3 3 5 6 5 5 4 2 1 3 1 3 1 0 2 2 5 3 3 3 4 5 4 2 1 4 3 6 7 6 5 6 7 6
16 16 16 16 17 8 6 4 9 6 2 2 1 6 4 1 1 1 2 1 3 3 3 2 2 3 3 0 1 5 4 5 5 6 4 2 5 5 6 5 6 8 7 6
17 18 19 4 0 1 3 6 10 1 3 2 0 3 4 1 2 2 2 3 1 2 3 3 4 1 2 5 6 5 3 3 3 6 3 6 6 7 7 6 8 7 6 6
17 3 2 2 3 6 3 5 3 4 2 1 3 2 4 3 1 1 3 2 3 1 6 3 4 1 1 5 6 6 4 4 4 4 6 5 5 6 7 7 7 8 7 7
2 3 2 3 3 2 0 2 3 2 2 4 5 6 3 3 3 3 2 3 1 2 6 5 2 2 4 4 5 3 4 6 7 6 6 5 4 5 7 9 9 9 10 10
4 5 5 3 2 1 1 4 3 5 6 3 5 6 6 4 3 4 3 2 3 3 1 4 2 4 4 5 5 5 6 7 7 7 6 6 6 7 8 10 10 11 11 11
2 1 2 2 3 1 4 4 4 2 3 4 2 1 4 4 4 3 3 3 4 1 2 3 4 3 3 4 3 6 6 6 7 7 6 6 8 9 10 10 9 10 10 10
1 2 3 5 4 5 6 4 3 6 3 5 3 2 4 1 3 3 3 4 2 1 1 3 4 6 5 3 3 5 5 7 7 6 6 6 8 9 8 7 8 8 10 11
3 2 5 6 6 3 4 6 4 5 3 4 3 4 4 1 3 1 3 1 3 4 4 4 4 6 5 3 2 6 6 6 5 4 5 5 5 5 7 7 6 6 8 10
3 4 3 4 1 4 4 4 4 2 2 3 4 3 3 1 3 2 5 3 3 3 3 4 5 5 3 3 4 6 6 6 5 5 4 1 4 5 7 7 6 6 7 9
4 5 4 4 4 6 4 2 3 4 4 2 3 4 6 1 1 3 4 4 4 4 3 3 6 6 5 5 6 7 7 6 5 4 3 1 3 5 5 7 7 7 7 7
Wind_Direction
345 346 345 342 343 338 125 25 36 227 101 69 169 192 220 310 303 315 308 87 148 123 359 4 76 54 93 356 78 72 7 123 335 243 270 190 108 26 80 109 287 28 136 271
346 347 346 343 345 351 312 81 257 336 93 125 296 280 285 260 276 263 15 26 65 147 162 135 194 126 14 65 66 96 1 25 22 342 359 3 51 359 41 129 78 348 120 250
348 349 348 345 346 343 151 81 45 332 45 176 221 318 274 276 250 100 94 44 76 41 70 5 38 84 43 33 86 155 83 98 143 172 220 236 325 345 9 109 95 208 201 126
350 351 351 350 350 2 351 37 291 181 260 286 240 169 279 320 275 137 35 42 27 117 49 41 31 30 50 8 304 94 104 83 44 198 239 354 290 332 321 286 218 152 178 124
352 353 355 354 353 353 60 66 36 354 290 285 291 147 252 158 8 71 24 104 62 69 88 105 87 153 50 141 335 35 14 210 66 348 346 9 324 319 305 51 72 76 114 103
352 352 356 0 1 357 49 318 331 107 276 323 36 324 39 24 77 19 74 119 86 58 46 220 244 194 193 195 147 92 97 115 74 290 334 350 22 326 62 55 32 134 130 152
353 352 354 359 6 18 235 250 104 58 298 27 341 12 31 38 53 109 29 66 87 267 331 352 15 5 320 248 234 143 131 103 106 222 27 16 226 11 86 81 51 49 78 83
352 352 354 356 358 0 235 290 57 68 329 301 348 11 354 18 5 29 87 57 165 169 45 42 14 343 1 308 221 196 159 117 98 130 170 276 358 1 21 89 24 45 81 48
350 353 352 354 357 358 346 287 12 97 110 310 295 360 14 52 352 10 7 349 69 69 75 69 156 229 242 295 333 65 74 85 116 111 144 230 227 305 347 104 58 2 97 88
350 351 352 353 355 356 342 284 325 95 62 274 360 24 1 351 49 120 323 329 14 57 68 84 177 250 236 274 132 160 43 31 143 158 195 279 224 303 12 95 220 147 100 112
348 348 349 351 352 355 2 279 323 72 314 282 308 2 16 6 57 115 277 35 357 37 65 118 273 93 324 46 359 133 137 130 213 82 124 240 302 28 110 204 142 116 68 78
344 346 347 348 348 353 357 316 327 348 157 240 269 262 232 226 184 143 345 178 225 181 89 39 91 2 21 80 330 345 52 176 175 154 211 231 359 105 60 130 138 180 231 252
338 340 342 344 343 347 1 289 298 357 26 312 11 248 261 113 212 158 117 317 201 23 169 160 169 87 117 111 256 50 320 127 107 76 11 105 88 89 91 75 348 302 286 269
334 333 335 337 336 335 344 305 286 127 269 83 284 343 0 163 94 96 137 162 23 107 76 104 117 154 152 203 185 141 209 36 72 56 342 183 65 62 298 328 312 288 280 264
323 325 326 332 333 328 313 207 258 253 138 223 280 310 255 166 111 96 67 75 83 73 42 76 226 218 82 335 67 20 40 179 123 198 231 162 254 307 336 348 320 305 308 312
318 320 320 323 328 335 343 34 279 21 33 84 326 285 274 118 111 114 125 131 103 109 134 208 271 255 100 102 185 242 161 96 145 176 198 189 238 245 275 264 284 304 302 289
311 313 312 310 314 345 179 214 234 15 20 81 323 316 271 160 104 15 31 18 138 115 143 110 175 300 88 110 178 187 158 133 117 93 119 347 306 282 293 314 304 299 278 278
308 305 303 300 297 271 285 251 247 134 137 89 236 271 0 118 136 265 165 109 24 340 183 8 156 356 67 234 241 156 132 103 52 358 4 262 281 349 339 311 313 318 308 311
302 303 300 308 67 215 245 97 119 97 129 173 288 196 234 50 213 193 17 111 106 287 170 229 99 325 208 209 151 132 122 108 335 321 0 355 359 323 327 322 325 307 315 331
304 298 21 327 254 118 111 19 33 11 308 49 216 267 266 100 121 244 88 32 193 168 243 97 105 108 321 156 152 138 99 57 27 33 354 345 350 349 341 334 333 318 296 309
28 358 278 275 267 29 69 234 157 190 236 215 225 189 211 306 123 192 169 185 214 60 264 126 143 128 228 188 124 105 60 78 70 97 84 63 42 356 335 325 318 312 325 318
317 282 279 298 334 14 215 224 264 177 223 208 171 208 182 262 115 91 335 118 42 236 262 83 92 249 194 131 95 60 69 70 75 78 71 39 16 349 338 333 335 336 330 327
273 239 270 135 263 47 211 219 250 221 240 206 150 106 151 10 49 62 75 73 242 59 77 177 198 200 161 123 87 54 62 72 85 62 57 22 15 6 357 344 340 333 335 329
261 180 302 174 235 228 205 219 238 256 215 149 129 136 128 179 83 152 117 235 78 304 261 176 211 192 157 120 70 74 65 81 77 61 44 31 18 10 346 340 328 338 339 336
255 236 235 221 237 290 260 251 268 260 141 111 69 49 96 24 93 61 80 260 241 208 193 204 194 177 157 138 111 109 105 99 84 70 54 29 357 344 323 320 325 346 343 346
240 240 274 278 294 307 325 318 283 331 62 80 73 120 85 207 155 130 206 193 224 212 201 180 145 171 168 124 122 130 126 123 126 103 101 31 344 341 315 317 344 345 342 345
242 246 228 240 245 243 256 268 291 304 71 126 106 128 197 142 149 212 190 198 196 185 152 148 160 168 171 155 141 136 130 129 132 150 134 229 291 318 330 3 332 340 344 340